CW1459 Weather Reports


time (UTC)temp
C
wind
direction
speed
KPH
gust
KPH
rain 1hr
cm
rain 24hr
cm
rain mn
cm
humidity
%
barometer
mb
20260906210333 26 340 4.8 8.0 0.00 0.00 0.00 53 1014.0
20260906205313 26 21 3.2 11.3 0.00 0.00 0.00 55 1013.9
20260906204332 26 138 3.2 16.1 0.00 0.00 0.00 56 1013.9
20260906203315 27 137 8.0 22.5 0.00 0.00 0.00 53 1013.9
20260906202349 27 50 4.8 9.7 0.00 0.00 0.00 49 1013.8
20260906201312 28 30 6.4 12.9 0.00 0.00 0.00 49 1013.8
20260906200331 28 351 8.0 14.5 0.00 0.00 0.00 52 1013.8
20260906195334 28 5 3.2 14.5 0.00 0.00 0.00 51 1013.8
20260906194338 27 5 11.3 20.9 0.00 0.00 0.00 51 1013.8
20260906193332 27 23 6.4 14.5 0.00 0.00 0.00 54 1013.9
20260906192319 28 9 3.2 16.1 0.00 0.00 0.00 49 1013.9
20260906191312 28 19 3.2 16.1 0.00 0.00 0.00 49 1013.9
20260906190313 28 103 3.2 8.0 0.00 0.00 0.00 49 1013.9
20260906185317 27 26 3.2 8.0 0.00 0.00 0.00 51 1014.1
20260906184337 27 338 3.2 16.1 0.00 0.00 0.00 51 1014.2
20260906182318 27 348 4.8 12.9 0.00 0.00 0.00 54 1014.2
20260906181336 25 294 3.2 8.0 0.00 0.00 0.00 60 1014.2
20260906180337 25 5 4.8 12.9 0.00 0.00 0.00 59 1014.2
20260906175334 26 340 8.0 19.3 0.00 0.00 0.00 56 1014.1
20260906174332 26 351 8.0 14.5 0.00 0.00 0.00 58 1014.2
20260906173341 26 333 8.0 16.1 0.00 0.00 0.00 56 1014.2
20260906172337 27 57 4.8 22.5 0.00 0.00 0.00 55 1014.3
20260906171317 27 32 6.4 16.1 0.00 0.00 0.00 54 1014.3
20260906170317 27 67 6.4 17.7 0.00 0.00 0.00 53 1014.5
20260906165340 27 294 6.4 12.9 0.00 0.00 0.00 52 1014.5
20260906164323 26 289 4.8 14.5 0.00 0.00 0.00 57 1014.7
20260906163330 26 317 6.4 12.9 0.00 0.00 0.00 57 1014.6
20260906162312 26 302 9.7 17.7 0.00 0.00 0.00 56 1014.7
20260906161334 26 24 8.0 17.7 0.00 0.00 0.00 59 1014.8
20260906160339 26 309 6.4 16.1 0.00 0.00 0.00 60 1014.9
20260906155336 26 328 3.2 17.7 0.00 0.00 0.00 57 1014.9
20260906154327 26 360 4.8 14.5 0.00 0.00 0.00 62 1014.8
20260906153338 25 333 4.8 14.5 0.00 0.00 0.00 63 1014.9
20260906152332 25 323 8.0 17.7 0.00 0.00 0.00 62 1014.9
20260906151336 25 34 8.0 14.5 0.00 0.00 0.00 62 1014.8
20260906150317 25 12 9.7 19.3 0.00 0.00 0.00 65 1014.8
20260906145318 24 333 8.0 14.5 0.00 0.00 0.00 67 1014.7
20260906144337 24 12 8.0 14.5 0.00 0.00 0.00 70 1014.7
20260906143329 24 335 6.4 14.5 0.00 0.00 0.00 71 1014.7
20260906142333 23 48 3.2 9.7 0.00 0.00 0.00 72 1014.7
20260906141333 22 332 4.8 9.7 0.00 0.00 0.00 74 1014.7
20260906140313 22 351 1.6 6.4 0.00 0.00 0.00 79 1014.6
20260906135319 21 336 3.2 4.8 0.00 0.00 0.00 82 1014.6
20260906134341 20 44 0.0 4.8 0.00 0.00 0.00 83 1014.6
20260906133318 20 302 1.6 4.8 0.00 0.00 0.00 84 1014.7
20260906132337 19 19 1.6 4.8 0.00 0.00 0.00 87 1014.6
20260906131319 18 24 3.2 4.8 0.00 0.00 0.00 91 1014.6
20260906130312 18 338 1.6 3.2 0.00 0.00 0.00 93 1014.7
20260906125319 17 149 0.0 3.2 0.00 0.00 0.00 95 1014.5
20260906124312 16 149 1.6 3.2 0.00 0.00 0.00 96 1014.5
20260906123312 16 149 0.0 1.6 0.00 0.00 0.00 96 1014.4
20260906122335 16 149 0.0 3.2 0.00 0.00 0.00 96 1014.3
20260906121336 15 149 0.0 1.6 0.00 0.00 0.00 96 1014.2
20260906120336 15 149 0.0 1.6 0.00 0.00 0.00 96 1014.0
20260906115316 14 149 0.0 0.0 0.00 0.00 0.00 96 1013.8
20260906114333 14 149 0.0 1.6 0.00 0.00 0.00 95 1013.7
20260906113356 13 149 0.0 0.0 0.00 0.00 0.00 95 1013.5
20260906112324 13 149 0.0 1.6 0.00 0.00 0.00 95 1013.5
20260906111313 13 149 0.0 3.2 0.00 0.00 0.00 95 1013.6
20260906110316 13 60 1.6 1.6 0.00 0.00 0.00 95 1013.5
20260906105313 13 38 0.0 1.6 0.00 0.00 0.00 95 1013.4
20260906104311 13 38 0.0 1.6 0.00 0.00 0.00 95 1013.3
20260906103336 13 38 0.0 1.6 0.00 0.00 0.00 95 1013.1
20260906102331 13 38 0.0 1.6 0.00 0.00 0.00 94 1013.1
20260906101343 14 38 1.6 1.6 0.00 0.00 0.00 94 1013.0
20260906100311 14 38 0.0 1.6 0.00 0.00 0.00 94 1012.9
20260906095336 14 38 1.6 4.8 0.00 0.00 0.00 94 1012.8
20260906094334 14 33 1.6 3.2 0.00 0.00 0.00 94 1012.7
20260906093317 14 96 0.0 1.6 0.00 0.00 0.00 94 1012.6
20260906092323 14 96 0.0 1.6 0.00 0.00 0.00 94 1012.5
20260906091351 14 96 0.0 1.6 0.00 0.00 0.00 94 1012.5
20260906090333 14 96 0.0 0.0 0.00 0.00 0.00 94 1012.3
20260906085339 14 96 0.0 0.0 0.00 0.00 0.00 94 1012.3
20260906084320 14 96 0.0 0.0 0.00 0.00 0.00 94 1012.3
20260906083333 15 96 0.0 0.0 0.00 0.00 0.00 93 1012.2
20260906082341 15 96 0.0 1.6 0.00 0.00 0.00 93 1012.2
20260906081341 15 96 0.0 1.6 0.00 0.00 0.00 93 1012.3
20260906080316 15 96 0.0 3.2 0.00 0.00 0.00 93 1012.3
20260906075339 15 96 0.0 0.0 0.00 0.00 0.00 93 1012.4
20260906074319 15 96 0.0 0.0 0.00 0.00 0.00 93 1012.2
20260906073340 15 96 0.0 0.0 0.00 0.00 0.00 93 1012.0
20260906072340 15 96 0.0 0.0 0.00 0.00 0.00 92 1012.0
20260906071319 15 96 1.6 3.2 0.00 0.00 0.00 92 1012.0
20260906070315 15 96 0.0 1.6 0.00 0.00 0.00 92 1011.9
20260906065401 15 96 0.0 1.6 0.00 0.00 0.00 92 1012.0
20260906064316 15 96 0.0 3.2 0.00 0.00 0.00 92 1012.0
20260906063319 16 96 1.6 3.2 0.00 0.00 0.00 91 1011.8
20260906062322 16 96 0.0 1.6 0.00 0.00 0.00 91 1011.9
20260906061315 16 96 1.6 3.2 0.00 0.00 0.00 91 1011.9
20260906060318 16 96 1.6 3.2 0.00 0.00 0.00 90 1012.0
20260906055333 16 96 3.2 3.2 0.00 0.00 0.00 90 1012.1
20260906054316 16 42 0.0 3.2 0.00 0.00 0.00 90 1012.1
20260906053317 17 42 1.6 3.2 0.00 0.00 0.00 89 1012.0
20260906052341 17 87 1.6 3.2 0.00 0.00 0.00 89 1012.0
20260906051337 17 87 1.6 4.8 0.00 0.00 0.00 89 1012.0
20260906050318 17 17 1.6 4.8 0.00 0.00 0.00 88 1012.0
20260906045352 17 306 1.6 3.2 0.00 0.00 0.00 88 1012.1
20260906044339 17 306 0.0 1.6 0.00 0.00 0.00 88 1012.2
20260906043315 17 306 0.0 3.2 0.00 0.00 0.00 87 1012.3
20260906042341 17 306 0.0 3.2 0.00 0.00 0.00 87 1012.3
20260906041316 18 306 1.6 3.2 0.00 0.00 0.00 87 1012.2
20260906040338 18 306 1.6 3.2 0.00 0.00 0.00 87 1012.1
20260906035355 18 306 0.0 3.2 0.00 0.00 0.00 86 1012.2
20260906034342 18 306 0.0 3.2 0.00 0.00 0.00 85 1012.3
20260906033341 18 306 0.0 1.6 0.00 0.00 0.00 85 1012.3
20260906032340 18 306 0.0 3.2 0.00 0.00 0.00 83 1012.2
20260906031338 19 306 0.0 4.8 0.00 0.00 0.00 82 1012.1
20260906030322 20 117 1.6 4.8 0.00 0.00 0.00 81 1012.1
20260906025317 20 28 0.0 3.2 0.00 0.00 0.00 79 1012.0
20260906024339 20 28 1.6 4.8 0.00 0.00 0.00 79 1011.9
20260906023341 20 28 3.2 4.8 0.00 0.00 0.00 77 1011.9
20260906022335 21 70 1.6 4.8 0.00 0.00 0.00 76 1011.8
20260906021336 21 24 1.6 3.2 0.00 0.00 0.00 74 1011.7
20260906020318 22 44 1.6 9.7 0.00 0.00 0.00 71 1011.7
20260906015354 22 112 6.4 16.1 0.00 0.00 0.00 71 1011.6
20260906014316 22 136 4.8 11.3 0.00 0.00 0.00 72 1011.5
20260906013316 22 123 3.2 11.3 0.00 0.00 0.00 72 1011.4
20260906012339 22 98 3.2 11.3 0.00 0.00 0.00 73 1011.3
20260906011332 22 136 4.8 14.5 0.00 0.00 0.00 74 1011.3
20260906010315 22 120 4.8 11.3 0.00 0.00 0.00 75 1011.2
20260906005330 22 128 3.2 9.7 0.00 0.00 0.00 76 1011.0
20260906004400 22 130 3.2 6.4 0.00 0.00 0.00 77 1011.0
20260906003337 21 103 3.2 6.4 0.00 0.00 0.00 78 1011.0
20260906002331 22 22 1.6 4.8 0.00 0.00 0.00 78 1010.9
20260906001400 22 49 1.6 4.8 0.00 0.00 0.00 76 1010.7
20260906000340 22 122 1.6 4.8 0.00 0.00 0.00 74 1010.6
20260905235319 22 96 1.6 6.4 0.00 0.00 0.00 74 1010.5
20260905234331 23 85 1.6 4.8 0.00 0.00 0.00 73 1010.4
20260905233335 23 113 1.6 4.8 0.00 0.00 0.00 73 1010.5
20260905232337 23 93 1.6 4.8 0.00 0.00 0.00 73 1010.4
20260905231315 25 89 1.6 3.2 0.00 0.00 0.00 71 1010.4
20260905230337 25 351 0.0 3.2 0.00 0.00 0.00 67 1010.3
20260905225319 25 26 3.2 4.8 0.00 0.00 0.00 66 1010.1
20260905224331 25 15 1.6 3.2 0.00 0.00 0.00 69 1010.0
20260905223338 25 46 0.0 4.8 0.00 0.00 0.00 69 1010.0
20260905222338 25 22 4.8 12.9 0.00 0.00 0.00 66 1009.9
20260905221317 26 16 4.8 12.9 0.00 0.00 0.00 63 1009.7
20260905220339 27 351 6.4 16.1 0.00 0.00 0.00 63 1009.7
20260905215313 27 333 6.4 16.1 0.00 0.00 0.00 63 1009.5
20260905214318 27 360 8.0 19.3 0.00 0.00 0.00 63 1009.5
20260905213326 27 9 6.4 12.9 0.00 0.00 0.00 63 1009.5
20260905212335 27 329 6.4 16.1 0.00 0.00 0.00 62 1009.4
20260905211318 27 333 4.8 17.7 0.00 0.00 0.00 64 1009.3